Regional Weather Roundup
Issued by NWS Northern Indiana

Home | Current Version | Previous Version | Graphics & Text | Print | Product List | Glossary On
Versions: 1 2 3 4 5 6 7 8 9 10 11 12 13 14 15 16 17 18 19 20 21 22 23 24 25 26 27 28 29 30 31 32 33 34 35 36 37 38 39 40 41 42 43 44 45 46 47 48 49 50
932
ASUS43 KIWX 260800
RWRIWX

KIWX WEATHER ROUNDUP
NATIONAL WEATHER SERVICE NORTHERN INDIANA
400 AM EDT FRI MAY 26 2017

NOTE: "FAIR" INDICATES FEW OR NO CLOUDS BELOW 12,000 FEET WITH NO
SIGNIFICANT WEATHER AND/OR OBSTRUCTIONS TO VISIBILITY.

* THESE STATIONS ARE NOT UNDER NWS QUALITY CONTROL. THEY ALSO MAY NOT
  REPORT WEATHER SUCH AS PRECIPITATION OR FOG.

INZ001>027-260900-
NORTHERN INDIANA

CITY           SKY/WX    TMP DP  RH WIND       PRES   REMARKS
MICHIGAN CITY* CLEAR     45  45 100 CALM      29.82R FOG
SOUTH BEND     CLOUDY    50  50 100 W5        29.80R
GOSHEN         CLOUDY    51  49  92 W8        29.78R FOG
MONTICELLO*    CLEAR     50  49  95 CALM      29.81R FOG
FORT WAYNE     PTCLDY    53  50  89 W7        29.77R
PERU/GRISSOM   CLEAR     51  51 100 W8        29.80R

$$
INZ028>050-260900-
CENTRAL INDIANA

CITY           SKY/WX    TMP DP  RH WIND       PRES   REMARKS
LAFAYETTE      PTCLDY    51  51 100 CALM      29.82R FOG
KOKOMO*        CLEAR     54  52  93 W8        29.82R
MUNCIE*        CLEAR     57  53  86 W7        29.80R
INDIANAPOLIS   PTCLDY    52  51  97 W3        29.83R FOG

$$
MIZ043>046-050>051-056>058-064>065-071>073-077>080-260900-
SOUTHWEST LOWER MICHIGAN

CITY           SKY/WX    TMP DP  RH WIND       PRES   REMARKS
BATTLE CREEK   PTCLDY    51  50  96 W8        29.75R
BENTON HARBOR  MOCLDY    50  48  93 W5        29.78R
COLDWATER*     CLOUDY    52  52 100 W7        29.76R FOG
HILLSDALE*     CLOUDY    54  52  94 W7        29.73R
HOLLAND        CLEAR     50  49  96 W5        29.77R
GRAND RAPIDS   MOCLDY    53  52  96 W3        29.75R
KALAMAZOO      CLOUDY    51  49  92 W8        29.77R FOG
STURGIS*       CLOUDY    51  51  99 W6        29.76R FOG
THREE RIVERS*  CLOUDY    52  51  97 W7        29.77R FOG

$$
OHZ001>008-015>018-024>025-260900-
NORTHWEST OHIO

CITY           SKY/WX    TMP DP  RH WIND       PRES   REMARKS
DEFIANCE       PTCLDY    53  51  93 W6        29.74R
FINDLAY        MOCLDY    57  52  83 W12       29.72S
TOLEDO EXPRESS MOCLDY    56  55  97 W10       29.71R
TOLEDO METCALF PTCLDY    58  56  93 W8        29.71R
LIMA           CLEAR     55  54  96 W13       29.75R

$$
AND FOR LAKE MICHIGAN COASTAL AND OPEN LAKE BUOY OBSERVATIONS

STATION/POSITION TEMP    WIND        PRES    VSBY  WAVE
                 AIR SEA DIR/SP/G                  HT/PER
                 (F)     (DEG/KT/KT) (MB)    (MI)  (FT/S)
CALUMET HARBOR    54     220/  3/  3 1008.9R
MICHIGAN CITY     53     240/  9/  9   N/A
BURNS HARBOR      56     250/  3/  5 1010.2R
SOUTH LAKE BUOY   47 45  340/  8/ 10 1008.2          2/ 5
4 MI NW BRIDGMAN  51 54  260/  8/ 10 1009.2R         3/ 5
MICHIGAN CITY     52 52  250/  4/  6   N/A           2/ 5

$$
&&




USA.gov is the U.S. government's official web portal to all federal, state and local government web resources and services.